Regional Weather Roundup
Issued by NWS

Home | Current Version | Previous Version | Graphics & Text | Print | Product List | Glossary On
Versions: 1 2 3 4 5 6 7 8 9 10 11 12 13 14 15 16 17 18 19 20 21 22 23 24 25 26 27 28 29 30 31 32 33 34 35 36 37 38 39 40 41 42 43 44 45 46 47 48 49 50
000
ASUS43 KLSX 010207
RWRMO

WEATHER SUMMARY FOR MISSOURI
NATIONAL WEATHER SERVICE SPRINGFIELD MO
900 PM CDT SUN AUG 31 2014

NOTE: "FAIR" INDICATES FEW OR NO CLOUDS BELOW 12,000 FEET WITH NO
       SIGNIFICANT WEATHER AND/OR OBSTRUCTIONS TO VISIBILITY.
       CURRENT SKY AND/OR WEATHER CONDITIONS ARE NOT AVAILABLE FOR
       CHILLICOTHE AND FARMINGTON.

MOZ001>031-035>038-043-044-053-054-010300-
...NORTHERN AND WESTERN MISSOURI...

CITY           SKY/WX    TMP DP  RH WIND       PRES   REMARKS
KANSAS CTY INT CLOUDY    85  66  53 S18G25    29.70F
KANSAS C DTWN  CLOUDY    88  65  46 S16G23    29.69F HX  90
LEE`S SUMMIT   MOCLDY    86  64  47 S16G23    29.73F
ST JOSEPH      LGT RAIN  82  67  60 S12       29.69R
CHILLICOTHE      N/A     83  66  56 SE8G16    29.74R
KIRKSVILLE     PTCLDY    77  66  68 S12       29.80R

$$
MOZ066>068-077>081-088>096-101>105-010300-
...SOUTHWEST MISSOURI...

CITY           SKY/WX    TMP DP  RH WIND       PRES   REMARKS
SPRINGFIELD    CLEAR     81  66  60 S12       29.88R
JOPLIN         CLEAR     84  65  52 S15       29.83R

$$
MOZ032>034-039>042-045>050-055>058-069>072-010300-
...CENTRAL MISSOURI...

CITY           SKY/WX    TMP DP  RH WIND       PRES   REMARKS
COLUMBIA       CLEAR     80  64  58 SE9       29.82F
JEFFERSON CITY CLEAR     80  66  62 E7        29.81S
ROLLA          CLEAR     78  68  71 SE9       29.87R
SEDALIA        CLEAR     84  66  54 S13       29.80R
WHITEMAN AFB   PTCLDY    82  66  58 S12       29.77S
OSAGE BEACH    CLEAR     82  64  54 S8        29.84S

$$
MOZ051-052-059>065-010300-
...EAST CENTRAL MISSOURI...

CITY           SKY/WX    TMP DP  RH WIND       PRES   REMARKS
ST LOUIS INTL  PTCLDY    81  70  69 SE13      29.88S
SPIRIT OF STL  CLEAR     79  69  71 SE6       29.85S
ST CHARLES     CLEAR     78  70  76 S9        29.85F

$$
MOZ072>076-082>087-097>100-106>115-010300-
...SOUTH CENTRAL AND SOUTHEAST MISSOURI...

CITY           SKY/WX    TMP DP  RH WIND       PRES   REMARKS
CAPE GIRARDEAU CLEAR     77  72  84 S7        29.93F
FARMINGTON     CLEAR     73  70  88 S5        29.94S
POPLAR BLUFF   PTCLDY    79  71  76 S6        29.92S
WEST PLAINS    CLEAR     79  69  71 S10       29.95R

$$


USA.gov is the U.S. government's official web portal to all federal, state and local government web resources and services.